Погода в Ивановском

Россия / Ярославская область     56°52′06″N   39°01′45″E
темп.,
°C
ветер,
м/с
пор.,
м/с
влажн.,
%
обл.,
%
осадки,
мм/ч
давл.,
гПа
погр.,
м
13 июня, вс
вс1300:00+14юз229414 0.0 100717
03:00+13юз2295100 0.0 100619
06:00+15ююз1192100 0.0 100682
09:00+19ю22799 0.4 1006501
12:00+21ююз33665 1.1 10061085
15:00+22юз346639 1.7 10061295
18:00+22зсз126011 0.2 10071009
21:00+17ююв227878 0.4 100822
14 июня, пн
пн1400:00+16ююз358498 0.0 100987
03:00+16ююз358599 0.0 1010107
06:00+16юз25875 0.0 1012147
09:00+21юз23673 0.0 1013526
12:00+24ю235514 0.4 10141706
15:00+23ююв247099 0.5 1014259
18:00+22ююв247996 0.3 101486
21:00+18ююз228370 0.6 101411
15 июня, вт
вт1500:00+18юз018481 0.0 101411
03:00+17всв008671 0.0 101411
06:00+18ююв11859 0.0 101474
09:00+22юз12725 0.1 1013507
12:00+24ю226525 2.1 1012861
15:00+25ю236415 4.6 1011995
18:00+24ююз237422 0.6 1010477
21:00+18ююз2286100 2.1 100922
16 июня, ср
ср1600:00+17з118897 1.7 100911
03:00+16з119674 5.9 100915
06:00+16зсз379385 0.2 1010210
09:00+19ссз577136 0.2 1011622
12:00+22ссз676144 0.0 10121623
15:00+21ссз476338 0.1 10131473
18:00+20ссз47610 0.0 1014615
21:00+14сз22751 0.0 101723
17 июня, чт
чт1700:00+12ссз311650 0.0 1019204
03:00+10ссз35660 0.0 102172
06:00+12сз28732 0.0 1023212
09:00+17ссз58530 0.0 1024997
12:00+20с47470 0.0 10241565
15:00+22с35470 0.0 10241904
18:00+22сз246322 0.0 1024904
21:00+16ссз118048 0.0 102511